Regional Weather Roundup
Issued by NWS

Home | Current Version | Previous Version | Text Only | Print | Product List | Glossary On
Versions: 1 2 3 4 5 6 7 8 9 10 11 12 13 14 15 16 17 18 19 20 21 22 23 24 25 26 27 28 29 30 31 32 33 34 35 36 37 38 39 40 41 42 43 44 45 46 47 48 49 50
000
ASHW40 PHFO 221310
RWRHI

WEATHER ROUNDUP FOR HAWAII
NATIONAL WEATHER SERVICE HONOLULU HI
300 AM HST WED OCT 22 2014

THIS IS AN AUTOMATED REPORT THAT HAS NOT BEEN QUALITY CONTROLLED.

NOTE..."FAIR" INDICATES FEW OR NO CLOUDS BELOW 12,000 FEET WITH NO
SIGNIFICANT WEATHER AND/OR OBSTRUCTIONS TO VISIBILITY.

* - THESE SITES REPORT LIMITED FIELDS

HIZ001>004-221400-
KAUAI-NIIHAU-

CITY           SKY/WX    TMP DP  RH WIND       PRES   REMARKS
LIHUE APT      MOCLDY    78  73  84 E9        29.98F
PORT ALLEN*      N/A     77 N/A N/A E9          N/A
POIPU*           N/A     79 N/A N/A NE1         N/A
PRINCEVILLE*     N/A     75 N/A N/A MISG        N/A
KOKOLE POINT*  NOT AVBL
MOLOAA DAIRY*  NOT AVBL
WAIMEA HTS*    NOT AVBL
PUU OPAE*      NOT AVBL
PUU LUA*       NOT AVBL
MAKAHA RIDGE*  NOT AVBL
$$

HIZ005>011-221400-
OAHU-

CITY           SKY/WX    TMP DP  RH WIND       PRES   REMARKS
HONOLULU       FAIR      77  73  87 NW3       29.97F
KALAELOA       FAIR      74  71  91 CALM      29.98F
KANEOHE MCB    FAIR      78  73  84 SE7       29.98F
WHEELER FIELD  NOT AVBL
BELLOWS*       NOT AVBL
KAHUKU*        NOT AVBL
WHEELER*       NOT AVBL
WAIANAE HARBOR NOT AVBL
DILLINGHAM*      N/A     70  68  94 CALM        N/A
KAHUKU TRN*      N/A     81  79  94 E3G10       N/A
KAWAILOA*        N/A     72  70  94 E3          N/A
KII*             N/A     79  73  83 E12         N/A
MAKUA RANGE*     N/A     73  70  88 SE5         N/A
OAHU FOREST NW NOT AVBL
SCHOFIELD BRK*   N/A     70  68  94 SW1         N/A
SCHOFIELD S*   NOT AVBL
WAIANAE VLY*   NOT AVBL
KUAOKALA*      NOT AVBL
HONOULIUULI*   NOT AVBL
MOKUOLOE IS*     N/A    N/A N/A N/A MISG        N/A
PALEHUA*       NOT AVBL
WAIAWA PHB*    NOT AVBL
$$

HIZ012>013-221400-
MOLOKAI-

CITY           SKY/WX    TMP DP  RH WIND       PRES   REMARKS
MOLOKAI AIRPT  MOCLDY    75  74  96 CALM      29.99F
KALAUPAPA      NOT AVBL
MAKAPULAPAI*   NOT AVBL
MOLOKAI 1*     NOT AVBL
PUU ALII*      NOT AVBL
$$

HIZ016-221400-
KAHOOLAWE-

CITY           SKY/WX    TMP DP  RH WIND       PRES   REMARKS
KAHOOLAWE*     NOT AVBL
HAKIOAWA*      NOT AVBL
HONOKANAIA*      N/A     77  69  76 NE7G13    29.99S
KANELOA*         N/A     75  70  83 E12G21    29.21F
KEALIALALO*    NOT AVBL
LUA MAKIKA*    NOT AVBL
$$

HIZ014>015-221400-
LANAI-

CITY           SKY/WX    TMP DP  RH WIND       PRES   REMARKS
LANAI CITY       N/A    N/A N/A N/A MISG        N/A
LANAI 1*       NOT AVBL
$$

HIZ017>028-221400-
MAUI-

CITY           SKY/WX    TMP DP  RH WIND       PRES   REMARKS
KAHULUI        FAIR      74  70  87 CALM      29.97F
KAPALUA-W MAUI NOT AVBL
HANA AIRPORT   MOCLDY    73  72  94 CALM      30.00S
HANA*          NOT AVBL
HALEAKALA SUMM   N/A     48  36  61 E7G22       N/A
MAALAEA BAY*   NOT AVBL
HALEAKALA*     NOT AVBL
KAUPO GAP*     NOT AVBL
KULA 1*          N/A     53  48  83 S1          N/A
$$

HIZ023>026-221400-
BIG ISLAND OF HAWAII COAST AND LOWER SLOPES-

CITY           SKY/WX    TMP DP  RH WIND       PRES   REMARKS
KAILUA KONA    MOCLDY    78  72  81 E5        29.96F
HILO           MOCLDY    73  67  81 CALM      29.98F
HONOKAA*       NOT AVBL
KAWAIHAE MWT*  NOT AVBL
KAWAIHAE*        N/A     79 N/A N/A N3          N/A
SOUTH POINT*   NOT AVBL
UPOLU AIRPORT* NOT AVBL
KAMUELA*       CLOUDY    64  61  88 CALM      30.10S
HAKALAU*         N/A     52  45  78 SW5G12      N/A
KALOKO-HONOKO* NOT AVBL
PALI 2*          N/A     64 -13   4 N6          N/A
KEALAKOMO*       N/A     75  68  78 N2          N/A
KAUPULEHU*     NOT AVBL
KAPAPALA*        N/A     64  60  87 CALM        N/A
LOWER KAHUKU*  NOT AVBL
PUHE CS*       NOT AVBL
PUHO CS*       NOT AVBL
PTA KEAMUKU*     N/A     61  57  88 S7          N/A
WAIKOLOA*      NOT AVBL
$$

HIZ027>028-221400-
BIG ISLAND OF HAWAII INTERIOR AND SUMMMITS-

CITY           SKY/WX    TMP DP  RH WIND       PRES   REMARKS
BRADSHAW FIELD FAIR      50  42  74 W3        30.32F
MK VISITOR CEN NOT AVBL
MAUNA KEA*       N/A     36  14  41 E9          N/A  WCI  29
MAUNA LOA*       N/A     43   9  24 MISG        N/A
MAUNA LOA 1*   NOT AVBL
PTA KIPUKA*      N/A     54  52  94 SE5         N/A
PTA RANGE 17*    N/A     52  46  82 SE3         N/A
PTA WEST*        N/A     55  54  94 SE7         N/A
NENE CABIN*    NOT AVBL
AHUMOA*        NOT AVBL
PTA PORTABLE*  NOT AVBL
PUU MALI*      NOT AVBL
$$

HIC003-221400-
NORTHWEST ISLANDS-

CITY           SKY/WX    TMP DP  RH WIND       PRES   REMARKS
MIDWAY ISLAND  CLEAR     79  75  89 S8        29.95F
MIDWAY NOS*    NOT AVBL
FRENCH FRIGATE NOT AVBL
$$

PHZ110>124-180-221400-
BUOY REPORTS

STATION/POSITION TIME  TEMP    WIND        PRES    WAVE   SWELL
                       AIR SEA DIR/SP/G            HT/PER HT/DIR
                 (UTC) (F)     (DEG/KT/KT) (MB)    (FT/S) (FT/D)
BUOY 51001       NOT AVBL
BUOY 51101       NOT AVBL
BUOY 51100       1200   78     100/ 10     1016.7
BUOY 51003       1200   81 82  130/ 16/ 17 1014.7F   7/12   5
BUOY 51004       1228   80 81   80/ 14/ 16 1013.7F   8/11   7/350
BARBERS PT BUOY  NOT AVBL
WAIMEA BAY BUOY  1300      82                N/A     5/12   3/350
KAILUA BAY BUOY  1300      82                N/A     6/12   3
LANAI BUOY       1300      82                N/A     3/13   2/200
BARBERS PT 2     1300      81                N/A     4/13   2/190
PAUWELA MAUI     1300      80                N/A     6/12   3/350
HILO             1300      80                N/A     6/13   3/350
KANEOHE BAY BUOY NOT AVBL
HANALEI KAUAI    NOT AVBL
KAHULUI HARBOR   1300   75 81   CALM  /  2 1014.8S
HONOLULU HARBOR  1300   77     340/  1/  2 1015.3F
KILO NALU        NOT AVBL
HILO HARBOR      1300   74     180/  4/  5 1014.7F
MOKUOLOE         1300      82              1015.3F
NAWILIWILI       1300      82                N/A
WHOTS BUOY       NOT AVBL
BUOY 51028       NOT AVBL
$$

......................KEY........................................
  SKY/WX - SKY CONDITIONS/PRESENT WEATHER
  TMP    - TEMPERATURE IN FAHRENHEIT
  DWPT   - DEWPOINT IN FAHRENHEIT
  RH     - RELATIVE HUMIDITY IN PERCENT
  WIND   - DIRECTION AND SPEED /MPH FOR ISLANDS...KTS FOR BUOYS/
  PRES   - MEAN SEA LEVEL PRESSURE IN INCHES OF HG
  VSB    - VISIBILITY IN MILES
  HX     - HEAT INDEX
  WCI    - WIND CHILL INDEX
  VRB    - VARIABLE WIND DIRECTION
  N/A    - NOT AVAILABLE



USA.gov is the U.S. government's official web portal to all federal, state and local government web resources and services.